| time (UTC) | temp C | wind direction | speed KPH | gust KPH | rain 1hr cm | rain 24hr cm | rain mn cm | humidity % | barometer mb |
| 20260506091517 | 16 | 101 | 0.0 | 3.2 | 0.00 | 1.68 | 0.03 | 83 | 1006.0 |
| 20260506090613 | 16 | 113 | 1.6 | 6.4 | 0.00 | 1.68 | 0.03 | 80 | 1006.3 |
| 20260506085610 | 15 | 107 | 0.0 | 3.2 | 0.00 | 1.68 | 0.03 | 85 | 1006.3 |
| 20260506084607 | 16 | 115 | 1.6 | 6.4 | 0.00 | 1.68 | 0.03 | 82 | 1006.0 |
| 20260506083603 | 16 | 96 | 1.6 | 6.4 | 0.00 | 1.68 | 0.03 | 81 | 1005.8 |
| 20260506082600 | 17 | 113 | 0.0 | 3.2 | 0.00 | 1.68 | 0.03 | 80 | 1005.7 |
| 20260506081556 | 16 | 113 | 0.0 | 3.2 | 0.00 | 1.68 | 0.03 | 82 | 1005.8 |
| 20260506080552 | 15 | 101 | 0.0 | 3.2 | 0.00 | 1.68 | 0.03 | 88 | 1005.7 |
| 20260506072538 | 14 | 105 | 0.0 | 3.2 | 0.00 | 1.68 | 0.03 | 90 | 1005.7 |
| 20260506071534 | 13 | 124 | 0.0 | 3.2 | 0.00 | 1.68 | 0.03 | 92 | 1005.7 |
| 20260506070530 | 13 | 0.0 | 3.2 | 0.03 | 1.68 | 0.03 | 94 | 1005.7 | |
| 20260506062516 | 13 | 117 | 0.0 | 3.2 | 0.03 | 1.68 | 0.03 | 95 | 1005.8 |
| 20260506061612 | 13 | 113 | 0.0 | 3.2 | 0.03 | 1.68 | 0.03 | 95 | 1005.9 |
| 20260506060608 | 13 | 0.0 | 3.2 | 0.00 | 1.65 | 0.00 | 97 | 1006.0 | |
| 20260506050547 | 12 | 113 | 0.0 | 3.2 | 0.00 | 1.65 | 0.00 | 99 | 1006.2 |
| 20260506044541 | 12 | 0.0 | 3.2 | 0.00 | 1.65 | 0.00 | 99 | 1006.1 | |
| 20260506043537 | 12 | 0.0 | 3.2 | 0.00 | 1.65 | 0.00 | 99 | 1006.0 | |
| 20260506042534 | 12 | 0.0 | 0.0 | 0.00 | 1.65 | 0.00 | 99 | 1006.0 | |
| 20260506041531 | 12 | 0.0 | 3.2 | 0.00 | 1.65 | 0.00 | 99 | 1005.9 | |
| 20260506040527 | 12 | 0.0 | 3.2 | 0.00 | 1.65 | 0.00 | 99 | 1005.9 | |
| 20260506035523 | 12 | 0.0 | 3.2 | 0.00 | 1.65 | 0.00 | 99 | 1005.8 | |
| 20260506034518 | 12 | 113 | 0.0 | 3.2 | 0.00 | 1.65 | 0.00 | 99 | 1005.8 |
| 20260506033614 | 12 | 0.0 | 3.2 | 0.00 | 1.65 | 0.00 | 99 | 1005.9 | |
| 20260506032611 | 12 | 0.0 | 0.0 | 0.00 | 1.65 | 0.00 | 99 | 1005.8 | |
| 20260506031607 | 12 | 113 | 0.0 | 3.2 | 0.00 | 1.65 | 0.00 | 99 | 1005.9 |
| 20260506030604 | 12 | 0.0 | 3.2 | 0.00 | 1.65 | 0.00 | 99 | 1005.9 | |
| 20260506025601 | 12 | 0.0 | 3.2 | 0.00 | 1.65 | 0.00 | 99 | 1005.9 | |
| 20260506024557 | 12 | 0.0 | 3.2 | 0.00 | 1.65 | 0.00 | 99 | 1006.0 | |
| 20260506023553 | 12 | 0.0 | 3.2 | 0.00 | 1.65 | 0.00 | 99 | 1006.0 | |
| 20260506022550 | 12 | 146 | 0.0 | 3.2 | 0.00 | 1.65 | 0.00 | 99 | 1005.9 |
| 20260506020542 | 12 | 113 | 0.0 | 6.4 | 0.00 | 1.65 | 0.00 | 99 | 1006.0 |
| 20260506015539 | 12 | 0.0 | 3.2 | 0.00 | 1.65 | 0.00 | 99 | 1005.9 | |
| 20260506014535 | 12 | 0.0 | 3.2 | 0.00 | 1.65 | 0.00 | 99 | 1006.1 | |
| 20260506013531 | 12 | 0.0 | 3.2 | 0.00 | 1.65 | 0.00 | 99 | 1006.2 | |
| 20260506012528 | 12 | 0.0 | 3.2 | 0.00 | 1.65 | 0.00 | 99 | 1006.3 | |
| 20260506011524 | 12 | 90 | 0.0 | 3.2 | 0.00 | 1.65 | 0.00 | 99 | 1006.4 |
| 20260506010521 | 12 | 0.0 | 3.2 | 0.00 | 1.65 | 0.00 | 99 | 1006.4 | |
| 20260506005518 | 12 | 113 | 0.0 | 3.2 | 0.00 | 1.65 | 0.00 | 99 | 1006.5 |
| 20260506004614 | 12 | 90 | 0.0 | 3.2 | 0.00 | 1.65 | 0.00 | 99 | 1006.5 |
| 20260506003610 | 12 | 90 | 0.0 | 3.2 | 0.00 | 1.65 | 0.00 | 99 | 1006.6 |
| 20260506002607 | 12 | 0.0 | 0.0 | 0.00 | 1.65 | 0.00 | 99 | 1006.7 | |
| 20260506001603 | 12 | 0.0 | 3.2 | 0.00 | 1.65 | 0.00 | 99 | 1006.8 | |
| 20260506000600 | 12 | 0.0 | 3.2 | 0.00 | 1.65 | 0.00 | 99 | 1006.9 | |
| 20260505235556 | 12 | 150 | 0.0 | 3.2 | 0.00 | 1.65 | 0.00 | 99 | 1006.8 |
| 20260505234553 | 12 | 158 | 0.0 | 3.2 | 0.00 | 1.65 | 0.00 | 99 | 1006.9 |
| 20260505233549 | 12 | 0.0 | 3.2 | 0.00 | 1.65 | 0.00 | 99 | 1006.9 | |
| 20260505232545 | 12 | 180 | 0.0 | 6.4 | 0.00 | 1.65 | 0.00 | 99 | 1006.9 |
| 20260505231542 | 12 | 0.0 | 0.0 | 0.00 | 1.65 | 0.00 | 99 | 1006.9 | |
| 20260505230538 | 12 | 0.0 | 0.0 | 0.00 | 1.65 | 0.00 | 99 | 1006.9 | |
| 20260505225535 | 12 | 0.0 | 0.0 | 0.00 | 1.65 | 0.00 | 99 | 1006.9 | |
| 20260505224531 | 12 | 0.0 | 0.0 | 0.00 | 1.65 | 0.00 | 99 | 1007.0 | |
| 20260505223528 | 12 | 0.0 | 0.0 | 0.00 | 1.65 | 0.00 | 99 | 1006.9 | |
| 20260505222524 | 12 | 0.0 | 0.0 | 0.00 | 1.65 | 0.00 | 99 | 1006.9 | |
| 20260505221520 | 12 | 0.0 | 0.0 | 0.00 | 1.65 | 0.00 | 99 | 1006.9 | |
| 20260505220516 | 12 | 0.0 | 0.0 | 0.00 | 1.65 | 0.00 | 99 | 1006.9 | |
| 20260505214609 | 12 | 0.0 | 0.0 | 0.00 | 1.65 | 1.65 | 99 | 1007.0 | |
| 20260505213606 | 12 | 0.0 | 0.0 | 0.00 | 1.65 | 1.65 | 99 | 1007.2 | |
| 20260505212602 | 12 | 0.0 | 0.0 | 0.00 | 1.65 | 1.65 | 99 | 1007.2 | |
| 20260505211558 | 12 | 0.0 | 0.0 | 0.03 | 1.65 | 1.65 | 99 | 1007.2 | |
| 20260505210555 | 12 | 0.0 | 0.0 | 0.03 | 1.65 | 1.65 | 99 | 1007.4 | |
| 20260505205551 | 12 | 0.0 | 0.0 | 0.05 | 1.65 | 1.65 | 98 | 1007.2 | |
| 20260505204548 | 12 | 0.0 | 0.0 | 0.05 | 1.65 | 1.65 | 98 | 1007.1 | |
| 20260505203544 | 12 | 0.0 | 0.0 | 0.05 | 1.65 | 1.65 | 98 | 1006.9 | |
| 20260505202541 | 12 | 0.0 | 0.0 | 0.05 | 1.65 | 1.65 | 98 | 1007.1 | |
| 20260505201538 | 12 | 0.0 | 0.0 | 0.03 | 1.63 | 1.63 | 98 | 1007.1 | |
| 20260505200534 | 12 | 0.0 | 0.0 | 0.03 | 1.63 | 1.63 | 98 | 1007.0 | |
| 20260505195531 | 12 | 0.0 | 0.0 | 0.00 | 1.60 | 1.60 | 98 | 1006.9 | |
| 20260505194527 | 12 | 0.0 | 0.0 | 0.00 | 1.60 | 1.60 | 98 | 1007.0 | |
| 20260505193524 | 12 | 0.0 | 0.0 | 0.03 | 1.60 | 1.60 | 98 | 1007.0 | |
| 20260505192520 | 12 | 0.0 | 0.0 | 0.10 | 1.60 | 1.60 | 98 | 1007.1 | |
| 20260505191516 | 12 | 0.0 | 0.0 | 0.20 | 1.60 | 1.60 | 98 | 1007.0 | |
| 20260505190612 | 12 | 0.0 | 0.0 | 0.28 | 1.60 | 1.60 | 98 | 1007.0 | |
| 20260505185609 | 12 | 0.0 | 0.0 | 0.28 | 1.60 | 1.60 | 97 | 1007.0 | |
| 20260505184605 | 12 | 0.0 | 0.0 | 0.30 | 1.60 | 1.60 | 97 | 1007.0 | |
| 20260505183602 | 12 | 0.0 | 0.0 | 0.36 | 1.55 | 1.55 | 97 | 1006.8 | |
| 20260505182559 | 12 | 0.0 | 0.0 | 0.51 | 1.50 | 1.50 | 97 | 1006.6 | |
| 20260505181555 | 13 | 0.0 | 0.0 | 0.81 | 1.37 | 1.37 | 97 | 1006.7 | |
| 20260505180551 | 12 | 0.0 | 0.0 | 0.94 | 1.32 | 1.32 | 96 | 1006.6 | |
| 20260505175548 | 12 | 158 | 0.0 | 3.2 | 1.22 | 1.32 | 1.32 | 95 | 1006.8 |
| 20260505174544 | 12 | 135 | 0.0 | 3.2 | 1.30 | 1.30 | 1.30 | 96 | 1006.9 |
| 20260505173540 | 13 | 135 | 0.0 | 3.2 | 1.19 | 1.19 | 1.19 | 95 | 1007.0 |
| 20260505172537 | 13 | 180 | 0.0 | 6.4 | 0.99 | 0.99 | 0.99 | 95 | 1007.3 |
| 20260505171533 | 13 | 141 | 1.6 | 6.4 | 0.56 | 0.56 | 0.56 | 94 | 1007.1 |
| 20260505170530 | 14 | 184 | 1.6 | 6.4 | 0.38 | 0.38 | 0.38 | 92 | 1006.8 |
| 20260505165526 | 16 | 203 | 0.0 | 3.2 | 0.10 | 0.10 | 0.10 | 84 | 1006.4 |
| 20260505164523 | 17 | 0.0 | 0.0 | 0.00 | 0.00 | 0.00 | 76 | 1005.7 | |
| 20260505163519 | 18 | 0.0 | 0.0 | 0.00 | 0.00 | 0.00 | 72 | 1005.2 | |
| 20260505162516 | 18 | 0.0 | 0.0 | 0.00 | 0.00 | 0.00 | 70 | 1005.3 | |
| 20260505161612 | 18 | 0.0 | 0.0 | 0.00 | 0.00 | 0.00 | 70 | 1005.4 | |
| 20260505160608 | 18 | 0.0 | 3.2 | 0.00 | 0.00 | 0.00 | 69 | 1005.5 | |
| 20260505152553 | 20 | 158 | 0.0 | 3.2 | 0.00 | 0.00 | 0.00 | 60 | 1005.9 |
| 20260505151550 | 20 | 0.0 | 0.0 | 0.00 | 0.00 | 0.00 | 57 | 1005.8 | |
| 20260505150545 | 20 | 0.0 | 0.0 | 0.00 | 0.00 | 0.00 | 58 | 1005.9 | |
| 20260505140523 | 22 | 134 | 1.6 | 6.4 | 0.00 | 0.00 | 0.00 | 54 | 1006.0 |
| 20260505124554 | 26 | 180 | 0.0 | 3.2 | 0.00 | 0.00 | 0.00 | 40 | 1006.6 |
| 20260505123550 | 27 | 180 | 0.0 | 3.2 | 0.00 | 0.00 | 0.00 | 39 | 1006.6 |
| 20260505122546 | 26 | 180 | 0.0 | 3.2 | 0.00 | 0.00 | 0.00 | 40 | 1006.7 |
| 20260505121542 | 26 | 169 | 0.0 | 3.2 | 0.00 | 0.00 | 0.00 | 39 | 1006.7 |
| 20260505120538 | 27 | 0.0 | 3.2 | 0.00 | 0.00 | 0.00 | 40 | 1006.8 | |
| 20260505115535 | 27 | 180 | 0.0 | 3.2 | 0.00 | 0.00 | 0.00 | 39 | 1006.9 |
| 20260505114531 | 26 | 0.0 | 3.2 | 0.00 | 0.00 | 0.00 | 39 | 1007.1 | |
| 20260505113527 | 26 | 180 | 0.0 | 3.2 | 0.00 | 0.00 | 0.00 | 41 | 1007.2 |
| 20260505112523 | 26 | 174 | 0.0 | 3.2 | 0.00 | 0.00 | 0.00 | 40 | 1007.2 |
| 20260505111520 | 26 | 174 | 0.0 | 6.4 | 0.00 | 0.00 | 0.00 | 42 | 1007.3 |
| 20260505110515 | 26 | 168 | 0.0 | 6.4 | 0.00 | 0.00 | 0.00 | 41 | 1007.4 |
| 20260505101557 | 24 | 0.0 | 3.2 | 0.00 | 0.00 | 0.00 | 48 | 1007.9 | |
| 20260505100553 | 25 | 0.0 | 3.2 | 0.00 | 0.00 | 0.00 | 46 | 1008.0 | |
| 20260505095550 | 24 | 158 | 0.0 | 3.2 | 0.00 | 0.00 | 0.00 | 50 | 1008.1 |
| 20260505094546 | 24 | 158 | 1.6 | 3.2 | 0.00 | 0.00 | 0.00 | 50 | 1008.1 |
| 20260505093541 | 24 | 180 | 0.0 | 3.2 | 0.00 | 0.00 | 0.00 | 51 | 1008.3 |
| 20260505092538 | 23 | 160 | 1.6 | 6.4 | 0.00 | 0.00 | 0.00 | 52 | 1008.3 |